[[{"header":{"parameterUnit":"m.s-1","parameterCategory":1,"la1":30.2991,"la2":30.254,"lo1":-89.0895,"lo2":-89.0444,"dy":0.0017,"dx":0.0017,"nx":28,"ny":28,"refTime":"2023-03-29T21:00:00:Z","depth":0,"parameterNumber":2,"parameterNumberName":"U-component_of_WINDS"},"data":[0,0,0,0,0,0,0,0,0,0,0,0,0,0,0,0,0,0,0,0,0,0,0,0,0,0,0,0,0,0,0,0,0,0,0,0,0,0,0,0,0,0,0,0,0,0,0,0,0,0,0,0,0,0,0,0,0,0,-5.7178,-5.7179,0,-5.724,-5.7241,-5.7241,-5.7211,-5.721,-5.7208,-5.7207,-5.7268,-5.7271,-5.7274,0,0,0,0,0,0,0,0,0,0,0,0,0,-5.7035,-5.7038,-5.7178,-5.7179,-5.718,-5.724,-5.7241,-5.7241,-5.7211,-5.721,-5.7208,-5.7206,-5.7267,-5.727,-5.7274,0,0,0,0,0,0,0,0,0,0,0,0,0,-5.7097,-5.7039,-5.7178,-5.7172,-5.7172,-5.724,-5.7241,-5.7242,-5.7212,-5.7209,-5.7207,-5.7205,-5.7265,-5.727,-5.7275,-5.7351,0,0,-5.7289,-5.7291,0,0,0,0,0,0,0,0,-5.7093,-5.7102,-5.7172,-5.7173,-5.7173,-5.7215,-5.7212,-5.7278,-5.7212,-5.7197,-5.7206,-5.7204,-5.7252,-5.7258,-5.7274,-5.7354,-5.7356,-5.7289,-5.7292,-5.7294,-5.7295,0,0,0,0,0,0,0,-5.7089,-5.7099,-5.7202,-5.7173,-5.7174,-5.7166,-5.7173,-5.7225,-5.7237,-5.7198,-5.7196,-5.7204,-5.7252,-5.727,-5.7276,-5.7357,-5.7289,-5.7293,-5.7296,-5.7298,-5.7503,-5.7506,0,0,0,0,0,0,-5.7085,-5.7096,-5.7201,-5.7204,-5.7127,-5.7171,-5.7178,-5.7204,-5.7236,-5.7239,-5.7206,-5.7202,-5.7263,-5.727,-5.7278,-5.7368,-5.7294,-5.7298,-5.7301,-5.7501,-5.7504,-5.7507,0,0,0,0,0,0,-5.7082,-5.7095,-5.7198,-5.715,-5.7162,-5.7176,-5.7206,-5.7207,-5.7225,-5.7242,-5.7244,-5.7222,-5.7262,-5.7271,-5.7333,-5.737,-5.73,-5.7305,-5.7498,-5.7502,-5.7505,-5.7551,0,0,0,0,0,0,-5.7078,-5.7094,-5.7122,-5.7151,-5.7165,-5.7252,-5.7208,-5.721,-5.7233,-5.7229,-5.7258,-5.726,-5.726,-5.7326,-5.7338,-5.7375,-5.7308,-5.7494,-5.7499,-5.7504,-5.7546,-5.7556,-5.7564,0,0,0,0,0,-5.7073,-5.7132,-5.7124,-5.7137,-5.7201,-5.7254,-5.7263,-5.7262,-5.7236,-5.7265,-5.7277,-5.7259,-5.7366,-5.7333,-5.7346,-5.7385,-5.7492,-5.7498,-5.7504,-5.7542,-5.7554,-5.7564,0,0,0,0,0,0,-5.7106,-5.7135,-5.7127,-5.7197,-5.7224,-5.7249,-5.7285,-5.7275,-5.7309,-5.7303,-5.7301,-5.7308,-5.7372,-5.7386,-5.7349,-5.7461,-5.7425,-5.7433,-5.7449,-5.7461,-5.747,-5.7463,-5.7312,0,0,0,0,0,-5.7122,-5.7163,-5.7187,-5.7246,-5.726,-5.7271,-5.7294,-5.7292,-5.7319,-5.733,-5.7346,-5.7373,-5.7413,-5.7438,-5.7475,-5.755,-5.7555,-5.7583,-5.7592,-5.76,-5.7606,-5.7646,-5.7659,-5.7527,-5.7527,-5.7526,0,0,-5.7154,-5.7175,-5.7201,-5.7253,-5.7273,-5.7316,-5.728,-5.7326,-5.7358,-5.7337,-5.7395,-5.741,-5.744,-5.7508,-5.7539,-5.7521,-5.7645,-5.7608,-5.7613,-5.7615,-5.7654,-5.7666,-5.7677,-5.7531,-5.753,-5.7529,0,0,-5.7233,-5.7254,-5.7305,-5.7328,-5.736,-5.7368,-5.7381,-5.7409,-5.7417,-5.7478,-5.7463,-5.7501,-5.7569,-5.7591,-5.7611,-5.7705,-5.7689,-5.7717,-5.7763,-5.7802,-5.7813,-5.7822,-5.7853,-5.7865,-5.7724,-5.7724,-5.7725,0,-5.7268,-5.7331,-5.7333,-5.7381,-5.7404,-5.7391,-5.7443,-5.7464,-5.7507,-5.7523,-5.7504,-5.759,-5.7609,-5.7683,-5.7706,-5.7724,-5.7737,-5.7711,-5.7811,-5.782,-5.7829,-5.7859,-5.7871,-5.7727,-5.7727,-5.7727,-5.7726,0,-5.7372,-5.7417,-5.7455,-5.7497,-5.7526,-5.7576,-5.7586,-5.7614,-5.7612,-5.7622,-5.7684,-5.7708,-5.775,-5.7768,-5.7765,-5.7842,-5.783,-5.7811,-5.7773,-5.7844,-5.7872,-5.7884,-5.7732,-5.773,-5.773,-5.7729,0,0,-5.7467,-5.7514,-5.7528,-5.7547,-5.7584,-5.7619,-5.767,-5.7712,-5.7736,-5.7768,-5.7809,-5.787,-5.7853,-5.7876,-5.7877,-5.7912,-5.7983,-5.7889,-5.789,-5.7903,-5.8068,-5.8078,-5.8092,-5.7975,-5.7978,-5.7979,-5.8064,0,-5.7547,-5.7634,-5.764,-5.7719,-5.776,-5.7751,-5.7795,-5.7822,-5.7835,-5.7872,-5.7885,-5.7927,-5.7903,-5.7917,-5.7952,-5.7966,-5.8015,-5.7961,-5.8012,-5.8014,-5.8,-5.8107,-5.8118,-5.8196,-5.8075,-5.8077,-5.8079,0,-5.7649,-5.7686,-5.7769,-5.7802,-5.782,-5.7859,-5.7899,-5.7936,-5.7968,-5.7974,-5.8003,-5.7999,-5.8051,-5.8016,-5.8088,-5.8051,-5.8073,-5.8084,-5.8087,-5.8088,-5.8047,-5.8107,-5.8221,-5.8232,-5.8096,-5.8095,-5.8094,0,-5.7708,-5.7778,-5.7837,-5.7855,-5.7895,-5.7923,-5.7941,-5.7971,-5.7997,-5.8034,-5.805,-5.8092,-5.8114,-5.8147,-5.8155,-5.8129,-5.8226,-5.8192,-5.8232,-5.8232,-5.8248,-5.8246,-5.8364,-5.827,-5.8269,-5.8269,-5.8269,0,-5.7793,-5.7844,-5.7863,-5.7899,-5.7957,-5.7964,-5.8021,-5.8038,-5.8066,-5.8105,-5.8101,-5.8137,-5.8148,-5.8187,-5.8194,-5.8252,-5.8263,-5.8269,-5.8269,-5.8267,-5.8266,-5.8278,-5.8271,-5.8272,-5.8272,-5.8271,-5.8271,0,-5.7865,-5.788,-5.7944,-5.7979,-5.7989,-5.803,-5.8059,-5.8094,-5.8108,-5.8158,-5.817,-5.8191,-5.8237,-5.825,-5.8305,-5.8311,-5.8378,-5.8375,-5.8366,-5.8365,-5.8403,-5.8398,-5.8529,-5.8546,-5.8444,-5.8445,-5.8446,0,-5.7916,-5.7955,-5.7995,-5.8022,-5.8042,-5.8084,-5.8111,-5.8122,-5.8151,-5.8193,-5.8223,-5.8269,-5.8305,-5.838,-5.84,-5.8443,-5.8439,-5.8483,-5.8445,-5.8442,-5.8436,-5.8432,-5.8436,-5.8488,-5.8489,-5.849,-5.8491,0,-5.8005,-5.8012,-5.8051,-5.8094,-5.8127,-5.8161,-5.8194,-5.8216,-5.8232,-5.8265,-5.8312,-5.8341,-5.84,-5.8445,-5.8489,-5.8508,-5.8502,-5.8503,-5.8514,-5.851,-5.8502,-5.8504,-5.8382,-5.8499,-5.8498,-5.8497,-5.8497,-5.8496,-5.8066,-5.81,-5.8134,-5.8179,-5.8206,-5.8238,-5.8272,-5.8292,-5.8332,-5.838,-5.8385,-5.8437,-5.8471,-5.853,-5.8552,-5.8593,-5.8579,-5.8596,-5.8599,-5.8602,-5.8604,-5.85,-5.8601,-5.8601,-5.8601,-5.8601,-5.86,0,-5.8151,-5.8174,-5.8216,-5.8263,-5.8298,-5.8293,-5.833,-5.836,-5.8405,-5.8438,-5.8476,-5.8532,-5.8577,-5.8603,-5.8648,-5.8676,-5.8674,-5.8687,-5.8683,-5.8688,-5.8614,-5.8599,-5.8688,-5.8688,-5.8688,-5.8688,-5.8688,-5.8688,-5.82,-5.8258,-5.8269,-5.8341,-5.8364,-5.8415,-5.8437,-5.8466,-5.8493,-5.8555,-5.8593,-5.8611,-5.8641,-5.869,-5.8731,-5.8738,-5.8753,-5.8767,-5.8772,-5.8702,-5.8693,-5.8684,-5.8669,-5.8771,-5.8772,-5.8841,-5.8842,-5.8842]},{"header":{"parameterUnit":"m.s-1","parameterCategory":1,"la1":30.2991,"la2":30.254,"lo1":-89.0895,"lo2":-89.0444,"dy":0.0017,"dx":0.0017,"nx":28,"ny":28,"refTime":"2023-03-29T21:00:00:Z","depth":0,"parameterNumber":3,"parameterNumberName":"V-component_of_WINDS"},"data":[0,0,0,0,0,0,0,0,0,0,0,0,0,0,0,0,0,0,0,0,0,0,0,0,0,0,0,0,0,0,0,0,0,0,0,0,0,0,0,0,0,0,0,0,0,0,0,0,0,0,0,0,0,0,0,0,0,0,2.977,2.9771,0,2.99,2.9901,2.9903,3.0004,3.0005,3.0006,3.0007,3.0135,3.0138,3.014,0,0,0,0,0,0,0,0,0,0,0,0,0,2.9606,2.9609,2.9769,2.9771,2.9773,2.99,2.9901,2.9903,3.0004,3.0005,3.0006,3.0007,3.0134,3.0137,3.014,0,0,0,0,0,0,0,0,0,0,0,0,0,2.9701,2.9609,2.9769,2.9838,2.9846,2.9899,2.9901,2.9904,3.0003,3.0005,3.0006,3.0008,3.0133,3.0137,3.0141,3.0135,0,0,3.0152,3.0154,0,0,0,0,0,0,0,0,2.9695,2.9706,2.9827,2.9834,2.9842,2.9937,2.9891,2.9981,3.0003,2.9943,3.0007,3.0008,3.0068,3.0077,3.0098,3.0141,3.0146,3.0153,3.0155,3.0157,3.0158,0,0,0,0,0,0,0,2.9688,2.9701,2.9821,2.9828,2.9838,2.9862,2.9877,2.9909,2.9996,2.9949,2.9956,2.9971,3.0072,3.0094,3.0102,3.0148,3.0153,3.0156,3.0158,3.016,3.0196,3.0195,0,0,0,0,0,0,2.9672,2.9695,2.9817,2.9825,2.9771,2.9864,2.9881,2.9905,2.9996,3.0011,2.9969,2.9975,3.0087,3.0097,3.0107,3.0108,3.0157,3.016,3.0162,3.0197,3.0196,3.0194,0,0,0,0,0,0,2.9668,2.9681,2.9812,2.9762,2.9781,2.9865,2.9892,2.9907,2.9929,3.0011,3.0027,2.9976,3.0089,3.0102,3.0128,3.0114,3.0162,3.0165,3.0199,3.0197,3.0195,3.0108,0,0,0,0,0,0,2.9663,2.9679,2.9678,2.9762,2.9783,2.9831,2.9891,2.9908,2.9936,2.9944,3.0022,3.0036,3.0091,3.0122,3.0132,3.012,3.0168,3.02,3.0198,3.0196,3.0113,3.0104,3.0096,0,0,0,0,0,2.9656,2.9647,2.9677,2.9692,2.9783,2.983,2.9842,2.9907,2.9934,2.9934,2.9987,3.0033,3.0114,3.0124,3.0136,3.0125,3.0202,3.0199,3.0196,3.0117,3.0106,3.0096,0,0,0,0,0,0,2.9557,2.9659,2.9694,2.9711,2.9762,2.9847,2.9848,2.9893,2.9935,2.9941,3.0019,3.0035,3.0054,3.0092,3.0101,3.0125,3.0164,3.0163,3.01,3.009,3.0081,3.0072,3.0171,0,0,0,0,0,2.9538,2.9568,2.9655,2.9662,2.9685,2.9762,2.9785,2.9831,2.9885,2.9907,2.9962,3.0012,3.0049,3.0071,3.011,3.0119,3.0138,3.0118,3.0109,3.0102,3.01,3.0111,3.0103,3.0185,3.0185,3.0185,0,0,2.9497,2.9556,2.957,2.9643,2.9688,2.9717,2.9779,2.9807,2.983,2.991,2.994,2.9982,3.0043,3.0062,3.0073,3.0094,3.0082,3.0098,3.0092,3.0094,3.0107,3.0099,3.0092,3.0183,3.0183,3.0183,0,0,2.9438,2.9485,2.9498,2.9542,2.9609,2.9661,2.9664,2.9744,2.9776,2.9807,2.9869,2.9897,2.9958,3.0,3.003,2.999,3.0035,3.0001,2.9956,2.9965,2.9959,2.9953,2.9941,2.9935,2.9999,2.9999,2.9998,0,2.9378,2.9426,2.9498,2.9524,2.9555,2.9632,2.9646,2.9684,2.9759,2.9779,2.9802,2.9884,2.993,2.9961,2.9952,2.9973,2.9979,2.9992,2.9954,2.995,2.9946,2.9935,2.993,2.9994,2.9995,2.9995,2.9996,0,2.9351,2.9383,2.9385,2.9459,2.949,2.9509,2.9584,2.9607,2.9651,2.97,2.9732,2.9791,2.9844,2.9855,2.9897,2.9893,2.9905,2.994,2.998,2.9932,2.9923,2.9919,2.9988,2.9989,2.9991,2.9992,0,0,2.9231,2.9347,2.9346,2.9382,2.9464,2.949,2.9513,2.9567,2.9586,2.9636,2.9658,2.971,2.9745,2.9778,2.9826,2.9834,2.9802,2.9869,2.9872,2.9855,2.9803,2.9776,2.977,2.9832,2.9832,2.9831,2.9798,0,2.9186,2.9233,2.93,2.9325,2.9357,2.9432,2.9453,2.9505,2.9552,2.9586,2.9638,2.9674,2.9716,2.9737,2.9748,2.9803,2.9792,2.9806,2.9853,2.9854,2.9836,2.9765,2.9736,2.9702,2.9795,2.9794,2.9794,0,2.9139,2.9188,2.9216,2.9299,2.9314,2.9332,2.9388,2.9419,2.9481,2.9515,2.9553,2.9606,2.9635,2.9672,2.9713,2.9721,2.9745,2.9775,2.9775,2.9782,2.9821,2.9771,2.9693,2.9688,2.9789,2.9789,2.9789,0,2.905,2.9123,2.9151,2.9179,2.9275,2.9286,2.9326,2.9389,2.9418,2.9467,2.9487,2.9538,2.9566,2.9604,2.9669,2.969,2.9704,2.9746,2.9734,2.9732,2.9733,2.9732,2.9658,2.9746,2.9747,2.9747,2.9747,0,2.8993,2.9008,2.9113,2.913,2.915,2.9227,2.9244,2.9291,2.9347,2.9374,2.9441,2.9465,2.955,2.9585,2.9636,2.9663,2.9675,2.9703,2.9717,2.9698,2.9694,2.9714,2.9719,2.9745,2.9746,2.9746,2.9746,0,2.8898,2.8968,2.9004,2.9093,2.9116,2.9126,2.9202,2.9222,2.9274,2.9308,2.9321,2.9402,2.9447,2.9516,2.9579,2.9614,2.9633,2.9655,2.9613,2.9621,2.9606,2.9607,2.9543,2.9539,2.9628,2.9627,2.9626,0,2.8857,2.8871,2.8962,2.8987,2.9025,2.9063,2.9094,2.9171,2.9201,2.9273,2.9284,2.9334,2.9378,2.9445,2.951,2.9559,2.9584,2.9558,2.9591,2.9573,2.9585,2.9584,2.9586,2.955,2.9548,2.9547,2.9546,0,2.8777,2.8813,2.8856,2.8912,2.8948,2.8995,2.9046,2.9061,2.9149,2.9179,2.9227,2.9261,2.9328,2.9377,2.9436,2.9478,2.9527,2.9536,2.9536,2.9516,2.9492,2.9507,2.9593,2.9536,2.9537,2.9538,2.9539,2.9539,2.8709,2.8726,2.8794,2.8841,2.8888,2.8934,2.8958,2.9014,2.9056,2.9118,2.916,2.9205,2.9269,2.9354,2.9393,2.9429,2.945,2.945,2.945,2.9449,2.9443,2.9486,2.944,2.944,2.9441,2.9441,2.9441,0,2.8635,2.8683,2.8725,2.8795,2.8832,2.8878,2.8937,2.8964,2.9004,2.9059,2.9102,2.9158,2.9206,2.9276,2.933,2.9346,2.937,2.9357,2.9357,2.9366,2.942,2.9415,2.9337,2.9337,2.9337,2.9337,2.9337,2.9337,2.86,2.8632,2.8676,2.8732,2.878,2.8826,2.8857,2.89,2.8945,2.9005,2.9046,2.9092,2.9154,2.9214,2.9261,2.928,2.9297,2.9278,2.9304,2.9352,2.9362,2.9371,2.9367,2.9281,2.9281,2.9248,2.9248,2.9247]}]]